EW2327 Weather Reports


Display with metric or nautical units.
time (UTC)temp
F
wind
direction
speed
MPH
gust
MPH
rain 1hr
in
rain 24hr
in
rain mn
in
humidity
%
barometer
mb
20260510093101 69 183 2.0 5.0 0.00 0.03 0.00 81 1007.1
20260510091546 68 178 0.0 0.0 0.00 0.03 0.00 78 1007.1
20260510090050 69 178 0.0 0.0 0.00 0.03 0.00 78 1006.9
20260510084549 69 178 0.0 0.0 0.00 0.03 0.00 78 1007.0
20260510083047 70 178 0.0 0.0 0.00 0.03 0.00 78 1007.0
20260510081556 70 178 0.0 3.0 0.00 0.03 0.00 78 1006.9
20260510080039 71 178 1.0 3.0 0.00 0.03 0.00 79 1007.0
20260510074537 71 178 0.0 2.0 0.00 0.03 0.00 77 1007.2
20260510073050 71 178 1.0 4.0 0.00 0.03 0.00 78 1007.1
20260510071536 72 178 2.0 4.0 0.00 0.03 0.00 77 1007.2
20260510070037 72 178 1.0 3.0 0.00 0.03 0.00 76 1007.1
20260510064545 72 178 1.0 4.0 0.00 0.03 0.00 76 1007.0
20260510063039 72 171 1.0 3.0 0.00 0.03 0.00 75 1006.9
20260510061532 73 181 1.0 4.0 0.00 0.03 0.00 74 1006.9
20260510060039 73 181 1.0 2.0 0.00 0.03 0.00 74 1006.9
20260510054526 73 181 0.0 4.0 0.00 0.03 0.00 73 1006.9
20260510053035 74 172 0.0 7.0 0.00 0.03 0.00 72 1006.9
20260510051522 74 178 1.0 4.0 0.00 0.03 0.00 71 1006.9
20260510050014 74 178 0.0 2.0 0.00 0.03 0.00 70 1006.9
20260510044532 75 178 0.0 1.0 0.00 0.03 0.03 69 1006.8
20260510043014 75 178 0.0 0.0 0.00 0.03 0.03 68 1006.7
20260510041513 76 178 0.0 2.0 0.00 0.03 0.03 68 1006.7
20260510040021 76 178 1.0 3.0 0.00 0.03 0.03 68 1006.6
20260510034512 75 178 0.0 2.0 0.00 0.03 0.03 65 1006.6
20260510033012 76 178 0.0 0.0 0.00 0.03 0.03 64 1006.4
20260510031510 76 178 0.0 0.0 0.00 0.03 0.03 64 1006.3
20260510030011 77 178 0.0 2.0 0.00 0.03 0.03 63 1006.0
20260510024509 77 178 0.0 2.0 0.00 0.03 0.03 62 1005.8
20260510023008 77 178 0.0 1.0 0.00 0.03 0.03 61 1005.7
20260510021508 78 178 0.0 1.0 0.00 0.03 0.03 61 1005.6
20260510020010 79 178 0.0 2.0 0.00 0.03 0.03 60 1005.4
20260510014506 80 178 0.0 0.0 0.00 0.03 0.03 59 1005.3
20260510013008 81 178 0.0 0.0 0.00 0.03 0.03 59 1005.1
20260510011505 81 178 0.0 1.0 0.00 0.03 0.03 59 1004.9
20260510010005 82 178 0.0 2.0 0.00 0.03 0.03 60 1004.9
20260510004503 83 178 0.0 3.0 0.00 0.03 0.03 59 1004.8
20260510003004 83 194 2.0 6.0 0.00 0.03 0.03 59 1004.8
20260510001502 84 125 1.0 5.0 0.00 0.03 0.03 58 1004.5
20260510000002 84 164 2.0 7.0 0.00 0.03 0.03 58 1004.4
20260509234501 84 201 1.0 8.0 0.00 0.03 0.03 57 1004.2
20260509233106 85 112 1.0 5.0 0.00 0.03 0.03 58 1004.1
20260509231601 85 186 2.0 9.0 0.00 0.03 0.03 59 1004.0
20260509230100 85 146 3.0 7.0 0.00 0.03 0.03 59 1004.0
20260509224600 85 204 3.0 8.0 0.00 0.03 0.03 60 1004.0
20260509223101 85 192 4.0 16.0 0.00 0.03 0.03 62 1004.0
20260509221556 84 171 1.0 3.0 0.00 0.03 0.03 67 1003.9
20260509220058 83 175 4.0 7.0 0.00 0.03 0.03 66 1003.9
20260509214554 81 151 2.0 8.0 0.00 0.03 0.03 68 1003.9
20260509213054 80 115 3.0 8.0 0.00 0.03 0.03 69 1004.2
20260509211549 81 326 2.0 10.0 0.00 0.03 0.03 69 1004.7
20260509210050 84 187 6.0 15.0 0.00 0.03 0.03 67 1005.0
20260509204548 88 251 1.0 3.0 0.00 0.03 0.03 71 1004.7
20260509203044 87 332 3.0 5.0 0.00 0.03 0.03 74 1004.5
20260509201553 86 205 0.0 3.0 0.00 0.03 0.03 75 1004.7
20260509200051 86 205 1.0 8.0 0.00 0.03 0.03 74 1004.9
20260509194539 86 195 3.0 8.0 0.00 0.03 0.03 75 1005.1
20260509193039 86 180 3.0 6.0 0.00 0.03 0.03 77 1005.3
20260509191534 85 191 1.0 6.0 0.00 0.03 0.03 79 1005.5
20260509190035 85 330 2.0 4.0 0.00 0.03 0.03 82 1005.7
20260509184538 84 322 0.0 4.0 0.00 0.03 0.03 83 1006.1
20260509183025 84 325 0.0 4.0 0.00 0.03 0.03 84 1006.3
20260509181521 83 186 3.0 7.0 0.00 0.03 0.03 83 1006.5
20260509180018 82 191 1.0 3.0 0.00 0.03 0.03 84 1006.6
20260509174516 82 153 2.0 5.0 0.00 0.03 0.03 85 1006.8
20260509173014 81 173 2.0 5.0 0.00 0.03 0.03 86 1007.0
20260509171523 81 229 1.0 4.0 0.00 0.03 0.03 87 1007.1
20260509170011 80 240 1.0 4.0 0.00 0.03 0.03 88 1007.1
20260509164508 80 171 1.0 4.0 0.00 0.03 0.03 88 1007.2
20260509163008 79 179 0.0 7.0 0.00 0.03 0.03 88 1007.2
20260509161502 78 236 0.0 3.0 0.00 0.03 0.03 90 1007.2
20260509160100 77 225 0.0 4.0 0.00 0.03 0.03 90 1007.1
20260509154556 76 167 2.0 5.0 0.00 0.03 0.03 91 1007.3
20260509153055 75 169 2.0 6.0 0.00 0.03 0.03 91 1007.5
20260509151550 74 160 1.0 5.0 0.00 0.03 0.03 91 1007.7
20260509150100 73 151 3.0 9.0 0.00 0.03 0.03 91 1007.5
20260509144620 73 196 3.0 8.0 0.00 0.03 0.03 91 1007.2
20260509143044 73 123 3.0 6.0 0.00 0.03 0.03 91 1006.9
20260509141540 72 160 1.0 5.0 0.00 0.03 0.03 90 1006.8
20260509140031 72 181 0.0 0.0 0.00 0.03 0.03 90 1007.3
20260509134530 72 181 0.0 1.0 0.00 0.03 0.03 90 1007.2
20260509133033 72 181 0.0 0.0 0.00 0.03 0.03 90 1007.3
20260509131538 72 181 0.0 1.0 0.00 0.03 0.03 90 1007.3
20260509130029 72 315 0.0 2.0 0.00 0.03 0.03 89 1007.2
20260509124532 72 315 0.0 2.0 0.00 0.03 0.03 89 1006.8
20260509123028 72 327 2.0 5.0 0.00 0.03 0.03 89 1006.5
20260509121532 72 334 0.0 3.0 0.00 0.03 0.03 89 1006.9
20260509120027 72 334 0.0 3.0 0.01 0.03 0.03 89 1007.0
20260509114525 72 341 0.0 2.0 0.01 0.03 0.03 89 1007.1
20260509113025 72 341 1.0 3.0 0.01 0.03 0.03 89 1007.4
20260509111525 72 50 0.0 3.0 0.01 0.03 0.03 89 1007.6
20260509110024 72 313 1.0 3.0 0.00 0.02 0.02 89 1007.8
20260509104531 72 215 1.0 3.0 0.00 0.02 0.02 89 1007.7
20260509103021 72 196 0.0 2.0 0.01 0.02 0.02 88 1007.5
20260509101518 72 196 0.0 1.0 0.01 0.02 0.02 88 1006.9
20260509100026 72 196 0.0 1.0 0.02 0.02 0.02 88 1006.8
20260509094521 72 196 0.0 2.0 0.02 0.02 0.02 88 1006.5